Date String (YYYY-MM-DD hh:mm:ss) UTC,Instrument flags,Ambient pressure (hPa),Sample flow (lpm),Bypass flow (lpm),Sample temperature (°C),Ambient temperature (°C),ASC tube jacket temperature (°C),LED temperature (°C),Box temperature (°C),Sample RH (%),Span deviation,Mass concentration (μg/m³),Mass concentration (μg/m³),Mass concentration (μg/m³)
DateTimeUTC,F1_M11,P_M11,Q1_M11,Q2_M11,T1_M11,T2_M11,T3_M11,T4_M11,T5_M11,U1_M11,ZSPAN_M11,X2_M11,X0_M11,X1_M11
2022-02-04 06:00:00,,0831.4,5.02,0.00,21.7,22.8,00.0,30.7,23.6,05.5,0000.0,0003.61,0004.91,0003.47
2022-02-04 06:01:00,,0831.4,5.00,0.00,21.8,22.9,00.0,30.7,23.7,05.4,0000.0,0003.67,0005.14,0003.52
2022-02-04 06:02:00,,0831.4,4.99,0.00,21.8,22.5,00.0,30.7,23.6,05.4,0000.0,0003.72,0005.30,0003.55
2022-02-04 06:03:00,,0831.4,5.00,0.00,21.8,22.0,00.0,30.7,23.4,05.4,0000.0,0003.73,0005.37,0003.56
2022-02-04 06:04:00,,0831.6,5.01,0.00,21.7,21.6,00.0,30.7,23.2,05.4,0000.0,0003.75,0005.42,0003.57
2022-02-04 06:05:00,,0831.6,5.00,0.00,21.6,21.3,00.0,30.7,23.1,05.4,0000.0,0003.77,0005.51,0003.58
2022-02-04 06:06:00,,0831.6,4.99,0.00,21.5,21.0,00.0,30.7,23.0,05.4,0000.0,0003.77,0005.74,0003.58
2022-02-04 06:07:00,,0831.6,5.01,0.00,21.5,20.8,00.0,30.6,22.8,05.4,0000.0,0003.76,0005.92,0003.57
2022-02-04 06:08:00,,0831.6,5.00,0.00,21.5,21.4,00.0,30.7,23.1,05.4,0000.0,0003.75,0005.90,0003.56
2022-02-04 06:09:00,,0831.6,5.00,0.00,21.7,22.2,00.0,30.7,23.4,05.4,0000.0,0003.75,0005.87,0003.56
2022-02-04 06:10:00,,0831.7,5.00,0.00,21.8,22.9,00.0,30.7,23.7,05.3,0000.0,0003.74,0005.81,0003.54
2022-02-04 06:11:00,,0831.7,4.99,0.00,21.9,22.6,00.0,30.8,23.7,05.3,0000.0,0003.66,0005.63,0003.48
2022-02-04 06:12:00,,0831.7,5.01,0.00,21.8,22.1,00.0,30.8,23.5,05.3,0000.0,0003.59,0005.47,0003.41
2022-02-04 06:13:00,,0831.7,4.99,0.00,21.8,21.7,00.0,30.8,23.3,05.2,0000.0,0003.58,0005.48,0003.39
2022-02-04 06:14:00,,0831.7,5.02,0.00,21.7,21.2,00.0,30.7,23.2,05.2,0000.0,0003.59,0005.52,0003.40
2022-02-04 06:15:00,,0831.7,4.99,0.00,21.6,20.9,00.0,30.7,23.0,05.2,0000.0,0003.63,0005.64,0003.43
2022-02-04 06:16:00,,0831.7,5.00,0.00,21.6,20.8,00.0,30.7,23.0,05.2,0000.0,0003.71,0005.93,0003.49
2022-02-04 06:17:00,,0831.6,5.00,0.00,21.5,21.0,00.0,30.7,23.0,05.2,0000.0,0003.77,0005.93,0003.55
2022-02-04 06:18:00,,0831.7,5.00,0.00,21.6,21.8,00.0,30.7,23.3,05.2,0000.0,0003.79,0005.95,0003.58
2022-02-04 06:19:00,,0831.7,5.00,0.00,21.8,22.5,00.0,30.7,23.6,05.1,0000.0,0003.84,0006.56,0003.62
2022-02-04 06:20:00,,0831.7,5.00,0.00,21.9,22.9,00.0,30.8,23.8,05.1,0000.0,0003.88,0006.66,0003.66
2022-02-04 06:21:00,,0831.7,5.01,0.00,21.9,22.4,00.0,30.8,23.6,05.1,0000.0,0003.93,0006.72,0003.73
2022-02-04 06:22:00,,0831.6,5.00,0.00,21.8,22.0,00.0,30.8,23.4,05.1,0000.0,0004.04,0006.89,0003.84
2022-02-04 06:23:00,,0831.7,5.00,0.00,21.8,21.6,00.0,30.8,23.2,05.2,0000.8,0004.21,0007.13,0004.03
2022-02-04 06:24:00,,0831.6,4.98,0.00,21.7,21.2,00.0,30.8,23.1,05.2,0001.9,0004.38,0007.36,0004.21
2022-02-04 06:25:00,,0831.7,5.01,0.00,21.6,20.9,00.0,30.7,23.1,05.2,0001.5,0004.57,0007.58,0004.40
2022-02-04 06:26:00,,0831.7,5.01,0.00,21.6,21.1,00.0,30.7,23.1,05.3,0001.9,0004.77,0007.83,0004.57
2022-02-04 06:27:00,,0831.7,4.99,0.00,21.7,22.0,00.0,30.8,23.4,05.2,0002.4,0004.84,0007.89,0004.65
2022-02-04 06:28:00,,0831.6,5.00,0.00,21.9,22.8,00.0,30.8,23.7,05.2,0002.2,0004.91,0007.98,0004.72
2022-02-04 06:29:00,,0831.7,5.00,0.00,22.0,22.8,00.0,30.8,23.8,05.2,0000.0,0005.10,0008.16,0004.88
2022-02-04 06:30:00,,0831.7,5.01,0.00,22.0,22.4,00.0,30.8,23.7,05.2,0001.5,0005.30,0008.12,0005.06
2022-02-04 06:31:00,,0831.7,5.00,0.00,21.9,22.0,00.0,30.8,23.5,05.2,0003.3,0005.48,0008.32,0005.23
2022-02-04 06:32:00,,0831.7,5.00,0.00,21.8,21.6,00.0,30.8,23.3,05.1,0002.8,0005.63,0008.53,0005.37
2022-02-04 06:33:00,,0831.6,5.00,0.00,21.7,21.3,00.0,30.8,23.2,05.1,0000.6,0005.65,0008.53,0005.39
2022-02-04 06:34:00,,0831.6,5.01,0.00,21.6,21.0,00.0,30.8,23.1,05.1,0000.0,0005.55,0008.44,0005.28
2022-02-04 06:35:00,,0831.6,5.02,0.00,21.6,21.0,00.0,30.8,23.0,05.2,0000.0,0005.41,0008.29,0005.13
2022-02-04 06:36:00,,0831.7,5.00,0.00,21.7,21.7,00.0,30.8,23.3,05.3,0000.0,0005.21,0008.04,0004.95
2022-02-04 06:37:00,,0831.6,5.00,0.00,21.8,22.3,00.0,30.8,23.6,05.2,0000.0,0004.95,0007.73,0004.70
2022-02-04 06:38:00,,0831.6,5.00,0.00,22.0,22.9,00.0,30.9,23.8,05.2,0000.0,0004.77,0007.47,0004.54
2022-02-04 06:39:00,,0831.6,5.01,0.00,22.0,22.8,00.0,30.9,23.8,05.2,0000.0,0004.62,0007.26,0004.38
2022-02-04 06:40:00,,0831.6,5.00,0.00,21.9,22.2,00.0,30.9,23.5,05.2,0000.0,0004.39,0006.73,0004.18
2022-02-04 06:41:00,,0831.6,5.00,0.00,21.8,21.6,00.0,30.8,23.2,05.3,0000.0,0004.10,0005.99,0003.93
2022-02-04 06:42:00,,0831.7,5.00,0.00,21.6,21.2,00.0,30.8,23.0,05.3,0000.0,0003.84,0005.42,0003.67
2022-02-04 06:43:00,,0831.7,5.02,0.00,21.5,20.8,00.0,30.8,22.8,05.3,0000.0,0003.58,0004.85,0003.42
2022-02-04 06:44:00,,0831.7,4.99,0.00,21.4,20.8,00.0,30.7,22.7,05.4,0000.0,0003.42,0004.59,0003.26
2022-02-04 06:45:00,,0831.7,5.01,0.00,21.5,21.4,00.0,30.7,23.0,05.3,0000.0,0003.31,0004.47,0003.12
2022-02-04 06:46:00,,0831.7,4.99,0.00,21.7,22.2,00.0,30.8,23.4,05.2,0000.0,0003.23,0004.32,0002.98
2022-02-04 06:47:00,,0831.7,5.02,0.00,21.8,22.8,00.0,30.8,23.6,05.1,0000.0,0003.20,0004.30,0002.92
2022-02-04 06:48:00,,0831.6,5.00,0.00,21.9,22.8,00.0,30.8,23.7,05.0,0000.0,0003.25,0004.41,0002.99
2022-02-04 06:49:00,,0831.6,4.98,0.00,21.8,22.2,00.0,30.8,23.4,05.0,0000.0,0003.32,0004.57,0003.11
2022-02-04 06:50:00,,0831.6,5.01,0.00,21.7,21.7,00.0,30.8,23.2,05.0,0000.0,0003.42,0004.76,0003.21
2022-02-04 06:51:00,,0831.7,5.01,0.00,21.6,21.3,00.0,30.8,23.0,05.0,0000.0,0003.54,0004.98,0003.33
2022-02-04 06:52:00,,0831.7,5.00,0.00,21.5,20.9,00.0,30.7,22.8,05.1,0000.0,0003.72,0005.36,0003.49
2022-02-04 06:53:00,,0831.7,4.99,0.00,21.4,20.9,00.0,30.7,22.8,05.1,0000.0,0003.89,0005.72,0003.67
2022-02-04 06:54:00,,0831.7,5.01,0.00,21.5,21.6,00.0,30.7,23.0,05.0,0000.0,0004.03,0005.98,0003.81
2022-02-04 06:55:00,,0831.7,4.99,0.00,21.7,22.4,00.0,30.7,23.4,05.0,0000.0,0004.19,0006.31,0003.96
2022-02-04 06:56:00,,0831.7,5.01,0.00,21.8,23.0,00.0,30.8,23.6,05.0,0000.0,0004.31,0006.39,0004.11
2022-02-04 06:57:00,,0831.7,5.00,0.00,21.9,22.7,00.0,30.8,23.6,05.0,0000.0,0004.40,0006.58,0004.20
2022-02-04 06:58:00,,0831.7,5.00,0.00,21.8,22.2,00.0,30.8,23.4,05.0,0000.0,0004.47,0006.72,0004.28
2022-02-04 06:59:00,,0831.7,4.99,0.00,21.7,21.7,00.0,30.8,23.2,05.0,0000.0,0004.55,0006.90,0004.37
